Zurück zum Katalog

DELTA 1 DEB

AktivSSO
NORAD 21280·DEBRIS·🇺🇸 United States

Gestartet Jun 12, 1975 von Vandenberg Space Force Base

Loading…

Nächste Überflüge (nächste 24 Stunden)

TLE

AktuellSource: Space-Track

Epoche: Sep 14, 2026, 10:09 UTC

1 21280U 75052R   26257.42358255  .00000018  00000-0  84858-4 0  9994
2 21280  99.4080  66.7230 0050256 327.8967  61.0557 13.56075137749405

Verfolge DELTA 1 DEB in Echtzeit mit AllMySat

Download on the App Store